[[{"header":{"parameterUnit":"m.s-1","parameterCategory":1,"la1":30.2991,"la2":30.254,"lo1":-89.0895,"lo2":-89.0444,"dy":0.0017,"dx":0.0017,"nx":28,"ny":28,"refTime":"2024-08-21T03:00:00:Z","depth":0,"parameterNumber":2,"parameterNumberName":"U-component_of_WINDS"},"data":[0,0,0,0,0,0,0,0,0,0,0,0,0,0,0,0,0,0,0,0,0,0,0,0,0,0,0,0,0,0,0,0,0,0,0,0,0,0,0,0,0,0,0,0,0,0,0,0,0,0,0,0,0,0,0,0,0,0,-1.2454,-1.2454,0,-1.2443,-1.2443,-1.2442,-1.2403,-1.2402,-1.2401,-1.24,-1.239,-1.239,-1.2391,0,0,0,0,0,0,0,0,0,0,0,0,0,-1.2444,-1.2444,-1.2454,-1.2454,-1.2454,-1.2443,-1.2443,-1.2442,-1.2403,-1.2402,-1.2401,-1.24,-1.2389,-1.239,-1.2391,0,0,0,0,0,0,0,0,0,0,0,0,0,-1.2442,-1.2444,-1.2454,-1.2433,-1.2431,-1.2443,-1.2443,-1.2442,-1.2403,-1.2402,-1.2401,-1.2399,-1.2389,-1.239,-1.2391,-1.2422,0,0,-1.2393,-1.2394,0,0,0,0,0,0,0,0,-1.2442,-1.2442,-1.2436,-1.2435,-1.2432,-1.2423,-1.2435,-1.2436,-1.2404,-1.2414,-1.24,-1.2399,-1.2402,-1.2401,-1.2402,-1.2422,-1.2421,-1.2393,-1.2394,-1.2394,-1.2394,0,0,0,0,0,0,0,-1.2442,-1.2443,-1.245,-1.2436,-1.2434,-1.2424,-1.2423,-1.2435,-1.2416,-1.2413,-1.241,-1.2409,-1.24,-1.2402,-1.2402,-1.2421,-1.2393,-1.2394,-1.2394,-1.2395,-1.2467,-1.2468,0,0,0,0,0,0,-1.2445,-1.2443,-1.245,-1.2449,-1.2434,-1.2426,-1.2424,-1.2427,-1.2415,-1.2412,-1.241,-1.2407,-1.2401,-1.2401,-1.2401,-1.2438,-1.2394,-1.2395,-1.2395,-1.2465,-1.2467,-1.2469,0,0,0,0,0,0,-1.2445,-1.2446,-1.2451,-1.2445,-1.2445,-1.2427,-1.2432,-1.2428,-1.2429,-1.2413,-1.241,-1.2415,-1.24,-1.24,-1.2417,-1.2437,-1.2395,-1.2396,-1.2464,-1.2466,-1.2468,-1.2511,0,0,0,0,0,0,-1.2445,-1.2446,-1.2458,-1.2446,-1.2446,-1.2467,-1.2433,-1.2429,-1.243,-1.2426,-1.2417,-1.2414,-1.2399,-1.2416,-1.2418,-1.2437,-1.2397,-1.2462,-1.2465,-1.2467,-1.2508,-1.2515,-1.252,0,0,0,0,0,-1.2445,-1.2471,-1.2459,-1.246,-1.246,-1.2468,-1.2468,-1.245,-1.2432,-1.2444,-1.2434,-1.2414,-1.2434,-1.2419,-1.242,-1.244,-1.2461,-1.2464,-1.2467,-1.2505,-1.2513,-1.252,0,0,0,0,0,0,-1.2487,-1.2469,-1.2455,-1.2479,-1.2475,-1.2461,-1.2476,-1.2459,-1.2461,-1.2457,-1.2435,-1.2433,-1.2454,-1.2448,-1.2431,-1.247,-1.2444,-1.2448,-1.2473,-1.248,-1.2486,-1.2488,-1.2397,0,0,0,0,0,-1.2498,-1.2506,-1.2491,-1.2513,-1.2511,-1.2494,-1.2497,-1.2483,-1.2479,-1.2477,-1.2468,-1.2465,-1.2471,-1.2475,-1.248,-1.2507,-1.2505,-1.2521,-1.2527,-1.2532,-1.2536,-1.2551,-1.2558,-1.2479,-1.2479,-1.2479,0,0,-1.2523,-1.2514,-1.2521,-1.2521,-1.2516,-1.2525,-1.2493,-1.2504,-1.2511,-1.2479,-1.2495,-1.2488,-1.2484,-1.2506,-1.2516,-1.2502,-1.2557,-1.2537,-1.2541,-1.2542,-1.2555,-1.2562,-1.2569,-1.2481,-1.2481,-1.2481,0,0,-1.2573,-1.2567,-1.2584,-1.2581,-1.2574,-1.2563,-1.2567,-1.2556,-1.255,-1.2566,-1.2542,-1.255,-1.256,-1.2557,-1.2558,-1.2606,-1.2588,-1.2608,-1.264,-1.2655,-1.2661,-1.2666,-1.2684,-1.2691,-1.2612,-1.2612,-1.2612,0,-1.2604,-1.2617,-1.2596,-1.2608,-1.2609,-1.258,-1.2598,-1.2596,-1.2592,-1.2593,-1.2578,-1.259,-1.2585,-1.2606,-1.2618,-1.2619,-1.2624,-1.2609,-1.2662,-1.2667,-1.2672,-1.2688,-1.2695,-1.2614,-1.2614,-1.2614,-1.2613,0,-1.2656,-1.2665,-1.268,-1.2676,-1.2679,-1.2694,-1.2676,-1.2681,-1.2667,-1.2656,-1.2673,-1.2665,-1.2668,-1.2672,-1.2658,-1.2692,-1.2684,-1.2666,-1.2639,-1.2682,-1.2697,-1.2704,-1.2618,-1.2617,-1.2616,-1.2616,0,0,-1.2732,-1.2716,-1.2722,-1.272,-1.2711,-1.2718,-1.2732,-1.2734,-1.2739,-1.2737,-1.2748,-1.2757,-1.274,-1.274,-1.2726,-1.2739,-1.2778,-1.2719,-1.2719,-1.2731,-1.2815,-1.283,-1.2837,-1.2766,-1.2767,-1.2768,-1.2816,0,-1.278,-1.2803,-1.2784,-1.281,-1.2819,-1.2791,-1.2803,-1.2799,-1.279,-1.2796,-1.2786,-1.2793,-1.277,-1.277,-1.2781,-1.2771,-1.2795,-1.2767,-1.2777,-1.2778,-1.278,-1.2845,-1.286,-1.2906,-1.2822,-1.2823,-1.2824,0,-1.2839,-1.2839,-1.2866,-1.2855,-1.2858,-1.2869,-1.2869,-1.2875,-1.287,-1.2862,-1.2862,-1.2845,-1.2858,-1.2832,-1.285,-1.2832,-1.2835,-1.2831,-1.2832,-1.2833,-1.2804,-1.2849,-1.292,-1.2927,-1.2833,-1.2832,-1.2831,0,-1.2892,-1.2899,-1.2916,-1.2915,-1.2903,-1.2911,-1.2907,-1.29,-1.2903,-1.2903,-1.2904,-1.2906,-1.2908,-1.291,-1.2894,-1.2876,-1.2914,-1.2887,-1.2909,-1.291,-1.2919,-1.2919,-1.2992,-1.292,-1.292,-1.292,-1.2919,0,-1.2948,-1.2965,-1.294,-1.2951,-1.297,-1.2949,-1.2968,-1.2961,-1.2955,-1.2964,-1.2941,-1.295,-1.2927,-1.2934,-1.2921,-1.2939,-1.2939,-1.2934,-1.2931,-1.2937,-1.2937,-1.2939,-1.2935,-1.2921,-1.2921,-1.2921,-1.292,0,-1.3011,-1.2995,-1.3012,-1.2998,-1.2995,-1.301,-1.2999,-1.3008,-1.2997,-1.3009,-1.3011,-1.2994,-1.3001,-1.2984,-1.2989,-1.298,-1.3005,-1.2996,-1.3007,-1.3005,-1.3028,-1.3026,-1.3106,-1.3115,-1.3036,-1.3037,-1.3038,0,-1.3048,-1.3061,-1.3049,-1.3053,-1.3049,-1.3056,-1.3058,-1.3038,-1.3041,-1.3036,-1.3047,-1.3051,-1.3054,-1.3066,-1.3055,-1.3058,-1.3049,-1.3077,-1.305,-1.3055,-1.3051,-1.305,-1.3052,-1.3083,-1.3084,-1.3085,-1.3085,0,-1.3115,-1.3106,-1.311,-1.3111,-1.3114,-1.3114,-1.3113,-1.3117,-1.3095,-1.3101,-1.3107,-1.3109,-1.3113,-1.3119,-1.3119,-1.3115,-1.3097,-1.3094,-1.3099,-1.3106,-1.3112,-1.3109,-1.3023,-1.3092,-1.3092,-1.3091,-1.3091,-1.309,-1.3167,-1.3177,-1.317,-1.3175,-1.3172,-1.3171,-1.3179,-1.3169,-1.3174,-1.3175,-1.3163,-1.3172,-1.3167,-1.3166,-1.3163,-1.317,-1.3158,-1.3166,-1.3168,-1.317,-1.3174,-1.311,-1.317,-1.317,-1.317,-1.317,-1.317,0,-1.3233,-1.3227,-1.3232,-1.323,-1.3234,-1.3216,-1.3213,-1.3218,-1.3226,-1.3223,-1.3226,-1.3233,-1.3238,-1.3227,-1.323,-1.3238,-1.323,-1.324,-1.3239,-1.3239,-1.3185,-1.318,-1.3246,-1.3246,-1.3246,-1.3246,-1.3246,-1.3246,-1.3268,-1.3285,-1.3275,-1.329,-1.3284,-1.3292,-1.3292,-1.3291,-1.3288,-1.3298,-1.3301,-1.3294,-1.3287,-1.329,-1.3294,-1.329,-1.3293,-1.3306,-1.3299,-1.325,-1.3242,-1.3235,-1.3231,-1.3306,-1.3306,-1.3352,-1.3353,-1.3353]},{"header":{"parameterUnit":"m.s-1","parameterCategory":1,"la1":30.2991,"la2":30.254,"lo1":-89.0895,"lo2":-89.0444,"dy":0.0017,"dx":0.0017,"nx":28,"ny":28,"refTime":"2024-08-21T03:00:00:Z","depth":0,"parameterNumber":3,"parameterNumberName":"V-component_of_WINDS"},"data":[0,0,0,0,0,0,0,0,0,0,0,0,0,0,0,0,0,0,0,0,0,0,0,0,0,0,0,0,0,0,0,0,0,0,0,0,0,0,0,0,0,0,0,0,0,0,0,0,0,0,0,0,0,0,0,0,0,0,-2.4018,-2.4018,0,-2.4035,-2.4035,-2.4035,-2.4001,-2.4,-2.3999,-2.3998,-2.4013,-2.4015,-2.4016,0,0,0,0,0,0,0,0,0,0,0,0,0,-2.3955,-2.3956,-2.4018,-2.4018,-2.4019,-2.4035,-2.4035,-2.4035,-2.4001,-2.4,-2.3999,-2.3997,-2.4013,-2.4014,-2.4016,0,0,0,0,0,0,0,0,0,0,0,0,0,-2.3978,-2.3956,-2.4018,-2.4004,-2.4002,-2.4035,-2.4035,-2.4035,-2.4002,-2.4,-2.3998,-2.3997,-2.4012,-2.4014,-2.4016,-2.4063,0,0,-2.4023,-2.4024,0,0,0,0,0,0,0,0,-2.3977,-2.398,-2.4005,-2.4005,-2.4003,-2.4014,-2.4018,-2.4045,-2.4002,-2.4002,-2.3998,-2.3996,-2.4015,-2.4017,-2.4023,-2.4064,-2.4065,-2.4023,-2.4025,-2.4026,-2.4026,0,0,0,0,0,0,0,-2.3975,-2.3979,-2.4025,-2.4006,-2.4005,-2.3996,-2.3997,-2.4023,-2.4017,-2.4002,-2.3999,-2.4002,-2.4014,-2.4021,-2.4024,-2.4065,-2.4023,-2.4025,-2.4026,-2.4027,-2.4145,-2.4147,0,0,0,0,0,0,-2.3976,-2.3978,-2.4024,-2.4025,-2.3986,-2.3998,-2.4,-2.4012,-2.4017,-2.4016,-2.4003,-2.4,-2.4019,-2.4021,-2.4024,-2.408,-2.4026,-2.4028,-2.4029,-2.4143,-2.4145,-2.4147,0,0,0,0,0,0,-2.3974,-2.398,-2.4023,-2.4001,-2.4006,-2.4001,-2.4016,-2.4014,-2.4021,-2.4018,-2.4017,-2.4012,-2.4017,-2.4021,-2.4054,-2.408,-2.4029,-2.403,-2.4141,-2.4144,-2.4146,-2.4191,0,0,0,0,0,0,-2.3973,-2.398,-2.3998,-2.4002,-2.4007,-2.4054,-2.4017,-2.4015,-2.4025,-2.4021,-2.4026,-2.4025,-2.4016,-2.4051,-2.4056,-2.4082,-2.4032,-2.4139,-2.4142,-2.4146,-2.4187,-2.4195,-2.4201,0,0,0,0,0,-2.3971,-2.4009,-2.3999,-2.4005,-2.403,-2.4055,-2.4058,-2.4048,-2.4027,-2.4045,-2.4044,-2.4025,-2.4076,-2.4055,-2.406,-2.4087,-2.4137,-2.4141,-2.4145,-2.4184,-2.4193,-2.4201,0,0,0,0,0,0,-2.4007,-2.4009,-2.3998,-2.4039,-2.4048,-2.405,-2.4072,-2.4058,-2.4072,-2.4067,-2.4053,-2.4054,-2.409,-2.4091,-2.4068,-2.4132,-2.4103,-2.4108,-2.413,-2.4139,-2.4146,-2.4145,-2.4034,0,0,0,0,0,-2.402,-2.4042,-2.4042,-2.4078,-2.4083,-2.4077,-2.4087,-2.4079,-2.4086,-2.4089,-2.409,-2.4098,-2.4115,-2.4127,-2.4143,-2.4187,-2.4188,-2.4208,-2.4215,-2.4221,-2.4226,-2.425,-2.4259,-2.4161,-2.4161,-2.4161,0,0,-2.4047,-2.4051,-2.4065,-2.4086,-2.4091,-2.4113,-2.408,-2.4104,-2.412,-2.4093,-2.4125,-2.4125,-2.4133,-2.4172,-2.4189,-2.4174,-2.4253,-2.4226,-2.4231,-2.4233,-2.4255,-2.4264,-2.4272,-2.4164,-2.4163,-2.4163,0,0,-2.4108,-2.4113,-2.4144,-2.415,-2.4159,-2.4155,-2.4162,-2.4167,-2.4166,-2.4198,-2.4178,-2.4197,-2.4227,-2.4234,-2.4241,-2.4305,-2.4288,-2.431,-2.4348,-2.4371,-2.4379,-2.4385,-2.4409,-2.4417,-2.4315,-2.4315,-2.4315,0,-2.414,-2.4173,-2.4161,-2.4188,-2.4197,-2.4174,-2.4205,-2.4212,-2.4225,-2.4232,-2.4216,-2.4254,-2.4257,-2.4298,-2.4313,-2.432,-2.4328,-2.431,-2.4379,-2.4385,-2.4391,-2.4413,-2.4422,-2.4318,-2.4317,-2.4317,-2.4317,0,-2.4212,-2.4235,-2.4259,-2.4274,-2.4286,-2.4315,-2.4307,-2.4321,-2.4311,-2.4308,-2.4341,-2.4344,-2.4361,-2.437,-2.436,-2.4409,-2.44,-2.4381,-2.4351,-2.4404,-2.4424,-2.4432,-2.4321,-2.4321,-2.432,-2.4319,0,0,-2.4296,-2.4305,-2.4314,-2.4321,-2.4329,-2.4346,-2.4374,-2.4391,-2.4403,-2.4413,-2.4436,-2.4462,-2.4446,-2.4454,-2.4444,-2.4465,-2.4516,-2.4444,-2.4444,-2.4457,-2.457,-2.4585,-2.4595,-2.4505,-2.4506,-2.4508,-2.457,0,-2.4357,-2.4405,-2.4396,-2.4443,-2.4464,-2.4443,-2.4466,-2.4474,-2.4472,-2.449,-2.4488,-2.4507,-2.4483,-2.4488,-2.4507,-2.4506,-2.4538,-2.4501,-2.4526,-2.4527,-2.4525,-2.4605,-2.4621,-2.4679,-2.4578,-2.4579,-2.458,0,-2.4434,-2.4448,-2.4497,-2.4503,-2.4512,-2.4533,-2.4549,-2.4566,-2.4574,-2.4571,-2.4581,-2.4568,-2.4595,-2.4564,-2.4601,-2.4576,-2.4586,-2.4586,-2.4588,-2.4591,-2.4557,-2.461,-2.4698,-2.4707,-2.4593,-2.4592,-2.4591,0,-2.4491,-2.4522,-2.4556,-2.4562,-2.4569,-2.4585,-2.4589,-2.4596,-2.4607,-2.462,-2.4627,-2.4642,-2.4651,-2.4663,-2.4655,-2.4633,-2.4693,-2.4662,-2.4692,-2.4692,-2.4706,-2.4705,-2.4797,-2.4711,-2.4711,-2.4711,-2.4711,0,-2.456,-2.4591,-2.4582,-2.4603,-2.4637,-2.4626,-2.466,-2.4661,-2.4667,-2.4687,-2.4669,-2.4689,-2.4676,-2.4694,-2.4687,-2.4719,-2.4723,-2.4722,-2.472,-2.4724,-2.4724,-2.473,-2.4726,-2.4713,-2.4713,-2.4712,-2.4712,0,-2.4629,-2.4625,-2.466,-2.4665,-2.4666,-2.4692,-2.4695,-2.4714,-2.4712,-2.4738,-2.4743,-2.4739,-2.4759,-2.4752,-2.4773,-2.4769,-2.481,-2.4802,-2.4808,-2.4806,-2.4836,-2.4834,-2.4935,-2.4948,-2.4854,-2.4855,-2.4856,0,-2.4674,-2.4698,-2.4705,-2.4718,-2.4723,-2.4744,-2.4755,-2.4745,-2.4758,-2.4769,-2.4787,-2.4806,-2.4821,-2.4855,-2.4853,-2.487,-2.4863,-2.4897,-2.4865,-2.4869,-2.4864,-2.4863,-2.4865,-2.4904,-2.4905,-2.4906,-2.4906,0,-2.4753,-2.475,-2.4768,-2.4785,-2.48,-2.4813,-2.4824,-2.4835,-2.4826,-2.4841,-2.4862,-2.4874,-2.4896,-2.4916,-2.4931,-2.4934,-2.4919,-2.4917,-2.4924,-2.4929,-2.4932,-2.4931,-2.4826,-2.4914,-2.4914,-2.4913,-2.4913,-2.4912,-2.4812,-2.4833,-2.4842,-2.4862,-2.487,-2.4881,-2.4899,-2.4899,-2.4917,-2.4936,-2.4928,-2.4953,-2.496,-2.4979,-2.4985,-2.5003,-2.499,-2.5001,-2.5004,-2.5007,-2.5012,-2.4928,-2.5006,-2.5006,-2.5005,-2.5005,-2.5005,0,-2.4892,-2.4896,-2.4915,-2.4932,-2.4949,-2.4934,-2.4945,-2.496,-2.4982,-2.4991,-2.5006,-2.5031,-2.505,-2.505,-2.5067,-2.5082,-2.5076,-2.5087,-2.5086,-2.5087,-2.5022,-2.5014,-2.5092,-2.5092,-2.5092,-2.5092,-2.5092,-2.5092,-2.4935,-2.4969,-2.4967,-2.5004,-2.5008,-2.5033,-2.5042,-2.5052,-2.5059,-2.5087,-2.5103,-2.5104,-2.5109,-2.5127,-2.5143,-2.5143,-2.515,-2.5164,-2.5161,-2.5101,-2.5092,-2.5084,-2.5076,-2.5166,-2.5166,-2.5225,-2.5225,-2.5226]}]]